Regional Weather Roundup
Issued by NWS

Home | Current Version | Previous Version | Text Only | Print | Product List | Glossary On
Versions: 1 2 3 4 5 6 7 8 9 10 11 12 13 14 15 16 17 18 19 20 21 22 23 24 25 26 27 28 29 30 31 32 33 34 35 36 37 38 39 40 41 42 43 44 45 46 47 48 49 50
000
ASHW40 PHFO 282112
RWRHI

WEATHER ROUNDUP FOR HAWAII
NATIONAL WEATHER SERVICE HONOLULU HI
1100 AM HST THU APR 28 2016

THIS IS AN AUTOMATED REPORT THAT HAS NOT BEEN QUALITY CONTROLLED.

NOTE..."FAIR" INDICATES FEW OR NO CLOUDS BELOW 12,000 FEET WITH NO
SIGNIFICANT WEATHER AND/OR OBSTRUCTIONS TO VISIBILITY.

* - THESE SITES REPORT LIMITED FIELDS

HIZ001>004-282200-
KAUAI-NIIHAU-

CITY           SKY/WX    TMP DP  RH WIND       PRES   REMARKS
LIHUE APT      MOSUNNY   82  70  65 E15G21    30.13F
PORT ALLEN*      N/A     84 N/A N/A E21G29      N/A
POIPU*           N/A     82 N/A N/A NE9G17      N/A
PRINCEVILLE*     N/A     79 N/A N/A E12G20      N/A
KOKOLE POINT*  NOT AVBL
MOLOAA DAIRY*    N/A     81  68  65 E12G20      N/A
WAIMEA HTS*    NOT AVBL
PUU OPAE*      NOT AVBL
PUU LUA*       NOT AVBL
MAKAHA RIDGE*  NOT AVBL
$$

HIZ005>011-282200-
OAHU-

CITY           SKY/WX    TMP DP  RH WIND       PRES   REMARKS
HONOLULU       FAIR      84  63  49 E17       30.11S
KALAELOA       FAIR      85  63  47 E10G23    30.12S
KANEOHE MCB    FAIR      82  67  60 E13G23    30.10F
WHEELER FIELD  FAIR      76  67  73 E7        30.12F
BELLOWS*       NOT AVBL
KAHUKU*        NOT AVBL
WHEELER*       NOT AVBL
WAIANAE HARBOR NOT AVBL
DILLINGHAM*      N/A     63  46  55 MISG        N/A
KAHUKU TRN*      N/A     81  64  57 CALM        N/A
KAWAILOA*        N/A     73  64  73 E8G18       N/A
KII*             N/A     79  68  69 E18G25      N/A
MAKUA RANGE*     N/A     88  68  51 E12G21      N/A  HX  91
OAHU FOREST NW NOT AVBL
SCHOFIELD BRK*   N/A     79  66  65 MISG        N/A
SCHOFIELD S*   NOT AVBL
WAIANAE VLY*   NOT AVBL
KUAOKALA*      NOT AVBL
HONOULIUULI*   NOT AVBL
MOKUOLOE IS*   NOT AVBL
PALEHUA*       NOT AVBL
WAIAWA PHB*    NOT AVBL
$$

HIZ012>013-282200-
MOLOKAI-

CITY           SKY/WX    TMP DP  RH WIND       PRES   REMARKS
MOLOKAI AIRPT  FAIR      82  64  54 NE22G30   30.11F
KALAUPAPA      NOT AVBL
MAKAPULAPAI*   NOT AVBL
MOLOKAI 1*     NOT AVBL
PUU ALII*      NOT AVBL
$$

HIZ016-282200-
KAHOOLAWE-

CITY           SKY/WX    TMP DP  RH WIND       PRES   REMARKS
KAHOOLAWE*     NOT AVBL
HAKIOAWA*      NOT AVBL
HONOKANAIA*      N/A     81  62  52 NE22G40   30.04S
KANELOA*         N/A     79  68  69 E23G36    30.17R
KEALIALALO*    NOT AVBL
LUA MAKIKA*    NOT AVBL
$$

HIZ014>015-282200-
LANAI-

CITY           SKY/WX    TMP DP  RH WIND       PRES   REMARKS
LANAI CITY     PTSUNNY   74  64  71 W10       30.15F
LANAI 1*       NOT AVBL
$$

HIZ017>028-282200-
MAUI-

CITY           SKY/WX    TMP DP  RH WIND       PRES   REMARKS
KAHULUI        FAIR      84  64  50 E16G26    30.08F
KAPALUA-W MAUI MOSUNNY   79  63  57 NE21G29   30.10
HANA AIRPORT   SUNNY     81  32  17 NE9       30.03
HANA*            N/A     81 N/A N/A E10G18      N/A
HALEAKALA SUMM   N/A     54  10  17 E26G40      N/A
MAALAEA BAY*   NOT AVBL
HALEAKALA*     NOT AVBL
KAUPO GAP*     NOT AVBL
KULA 1*          N/A     58  53  82 W6G12       N/A
$$

HIZ023>026-282200-
BIG ISLAND OF HAWAII COAST AND LOWER SLOPES-

CITY           SKY/WX    TMP DP  RH WIND       PRES   REMARKS
KAILUA KONA    FAIR      83  67  58 SW9       30.06F
HILO           PTSUNNY   76  67  73 SW6       30.14S
HONOKAA*         N/A     77 N/A N/A VRB1        N/A
KAWAIHAE MWT*    N/A     82 N/A N/A W7          N/A
KAWAIHAE*      NOT AVBL
SOUTH POINT*     N/A     75 N/A N/A N1          N/A
UPOLU AIRPORT*   N/A    N/A N/A N/A NE18G25     N/A
KAMUELA*       CLEAR     81  57  44 N13       30.17F
HAKALAU*         N/A     58  51  78 S8G18       N/A
KALOKO-HONOKO* NOT AVBL
PALI 2*          N/A     70  57  64 SW14G23     N/A
KEALAKOMO*       N/A     81  64  57 E14G26      N/A
KAUPULEHU*     NOT AVBL
KAPAPALA*        N/A     77  61  58 E12G25      N/A
LOWER KAHUKU*  NOT AVBL
PUHE CS*       NOT AVBL
PUHO CS*       NOT AVBL
PTA KEAMUKU*     N/A     72  54  53 CALM        N/A
WAIKOLOA*      NOT AVBL
$$

HIZ027>028-282200-
BIG ISLAND OF HAWAII INTERIOR AND SUMMMITS-

CITY           SKY/WX    TMP DP  RH WIND       PRES   REMARKS
BRADSHAW FIELD FAIR      66  42  40 SW8G23    30.37F
MK VISITOR CEN   N/A     54  19  26 SE13        N/A
MAUNA KEA*       N/A     46 -15   7 NE18        N/A
MAUNA LOA*       N/A    N/A N/A N/A MISG        N/A
MAUNA LOA 1*   NOT AVBL
PTA KIPUKA*      N/A     70  41  35 NE10G17     N/A
PTA RANGE 17*    N/A     66  41  39 SE10G18     N/A
PTA WEST*        N/A     72  52  49 NW9G18      N/A
NENE CABIN*    NOT AVBL
AHUMOA*        NOT AVBL
PTA PORTABLE*  NOT AVBL
PUU MALI*        N/A     61  52  72 NW6G12      N/A
$$

HIC003-282200-
NORTHWEST ISLANDS-

CITY           SKY/WX    TMP DP  RH WIND       PRES   REMARKS
MIDWAY ISLAND  NOT AVBL
MIDWAY NOS*    NOT AVBL
FRENCH FRIGATE NOT AVBL
$$

PHZ110>124-180-282200-
BUOY REPORTS

STATION/POSITION TIME  TEMP    WIND        PRES    WAVE   SWELL
                       AIR SEA DIR/SP/G            HT/PER HT/DIR
                 (UTC) (F)     (DEG/KT/KT) (MB)    (FT/S) (FT/D)
BUOY 51001       2000   77 78   90/ 12/ 14 1019.3R
BUOY 51101       2050   75 75  100/ 12/ 16 1020.9F   6/ 7   5/100
BUOY 51100       NOT AVBL
BUOY 51002       2050   78 78   90/ 21/ 25 1016.5F  10/ 9   7/ 90
BUOY 51003       2050   78 78   90/ 14/ 17 1018.1F   8/ 8   7/ 80
BUOY 51004       2050   79 79   90/ 16/ 17 1018.1F   9/ 8   7/ 90
BARBERS PT BUOY  NOT AVBL
WAIMEA BAY BUOY  2004      78                N/A     5/12   2/340
KAILUA BAY BUOY  2011      78                N/A     8/ 9   2/ 30
LANAI BUOY       2015      79                N/A     3/13   2/190
BARBERS PT 2     2003      79                N/A     5/14   2/190
PAUWELA MAUI     2009      76                N/A     8/11   3
HILO             2012      77                N/A     8/ 9   3/ 70
KANEOHE BAY BUOY 2006      77                N/A     7/ 9   2/ 10
HANALEI KAUAI    NOT AVBL
KAHULUI HARBOR   2000   78 77   70/ 18/ 24 1018.9R
HONOLULU HARBOR  2000   80 78   60/  8/ 15 1020.4R
KILO NALU        NOT AVBL
HILO HARBOR      2000   84 76  120/  3/  8 1020.2R
MOKUOLOE         2000   81 78  100/ 13/ 18 1020.2S
NAWILIWILI       2000   78 80   80/ 15/ 17 1020.2F
WHOTS BUOY       NOT AVBL
BUOY 51028       NOT AVBL
$$

......................KEY........................................
  SKY/WX - SKY CONDITIONS/PRESENT WEATHER
  TMP    - TEMPERATURE IN FAHRENHEIT
  DWPT   - DEWPOINT IN FAHRENHEIT
  RH     - RELATIVE HUMIDITY IN PERCENT
  WIND   - DIRECTION AND SPEED /MPH FOR ISLANDS...KTS FOR BUOYS/
  PRES   - MEAN SEA LEVEL PRESSURE IN INCHES OF HG
  VSB    - VISIBILITY IN MILES
  HX     - HEAT INDEX
  WCI    - WIND CHILL INDEX
  VRB    - VARIABLE WIND DIRECTION
  N/A    - NOT AVAILABLE




USA.gov is the U.S. government's official web portal to all federal, state and local government web resources and services.